• In Czech Republic
  • List of Countries
  • For 7 days
  • Water Temperature
  • Satellite Maps
  • Weather Map
  • Weather Widgets
  • user-avatar
    Login

    Hourly Weather Contla

    Today, 24 November, Friday

    Time Temperature Precipitation Wind Pressure Humidity
    00:00 +8°C° 0 mm 1 mps 573 mmHg 80%
    01:00 +8°C° 0 mm 1 mps 573 mmHg 80%
    02:00 +7°C° 0 mm 1 mps 572 mmHg 80%
    03:00 +7°C° 0 mm 1 mps 572 mmHg 78%
    04:00 +7°C° 0 mm 1 mps 572 mmHg 77%
    05:00 +7°C° 0 mm 1 mps 572 mmHg 76%
    06:00 +9°C° 0 mm 1 mps 573 mmHg 67%
    07:00 +11°C° 0 mm 1 mps 574 mmHg 58%
    08:00 +12°C° 0 mm 1 mps 575 mmHg 49%
    09:00 +14°C° 0 mm 1 mps 576 mmHg 42%
    10:00 +16°C° 0 mm 2 mps 576 mmHg 36%
    11:00 +18°C° 0 mm 2 mps 577 mmHg 29%
    12:00 +18°C° 0 mm 2 mps 576 mmHg 29%
    13:00 +18°C° 0 mm 2 mps 576 mmHg 29%
    14:00 +19°C° 0 mm 3 mps 576 mmHg 30%
    15:00 +17°C° 0 mm 2 mps 575 mmHg 38%
    16:00 +15°C° 0 mm 2 mps 574 mmHg 47%
    17:00 +13°C° 0 mm 1 mps 573 mmHg 55%
    18:00 +13°C° 0 mm 1 mps 574 mmHg 60%
    19:00 +12°C° 0 mm 1 mps 574 mmHg 66%
    20:00 +11°C° 0 mm 1 mps 574 mmHg 71%
    21:00 +11°C° 0 mm 1 mps 574 mmHg 72%
    22:00 +10°C° 0 mm 1 mps 574 mmHg 73%
    23:00 +10°C° 0 mm 1 mps 573 mmHg 74%

    Tomorrow, 25 November, Saturday

    Time Temperature Precipitation Wind Pressure Humidity
    00:00 +10°C° 0 mm 1 mps 573 mmHg 74%
    01:00 +9°C° 0 mm 1 mps 573 mmHg 73%
    02:00 +9°C° 0 mm 1 mps 572 mmHg 73%
    03:00 +9°C° 0 mm 1 mps 572 mmHg 71%
    04:00 +8°C° 0 mm 1 mps 572 mmHg 69%
    05:00 +8°C° 0 mm 1 mps 572 mmHg 68%
    06:00 +10°C° 0 mm 1 mps 574 mmHg 59%
    07:00 +12°C° 0 mm 1 mps 575 mmHg 51%
    08:00 +14°C° 0 mm 1 mps 576 mmHg 42%
    09:00 +16°C° 0 mm 1 mps 577 mmHg 36%
    10:00 +18°C° 0 mm 2 mps 577 mmHg 30%
    11:00 +20°C° 0 mm 2 mps 578 mmHg 24%
    12:00 +20°C° 0 mm 2 mps 578 mmHg 25%
    13:00 +21°C° 0 mm 2 mps 577 mmHg 25%
    14:00 +21°C° 0 mm 2 mps 577 mmHg 25%
    15:00 +19°C° 0 mm 2 mps 576 mmHg 33%
    16:00 +17°C° 0 mm 2 mps 576 mmHg 42%
    17:00 +15°C° 0 mm 2 mps 575 mmHg 50%
    18:00 +14°C° 0 mm 2 mps 575 mmHg 55%
    19:00 +13°C° 0 mm 1 mps 575 mmHg 61%
    20:00 +12°C° 0 mm 1 mps 575 mmHg 66%
    21:00 +12°C° 0 mm 1 mps 575 mmHg 66%
    22:00 +11°C° 0 mm 1 mps 575 mmHg 66%
    23:00 +11°C° 0 mm 1 mps 575 mmHg 66%

    Day after tomorrow, 26 November, Sunday

    Time Temperature Precipitation Wind Pressure Humidity
    00:00 +10°C° 0 mm 1 mps 575 mmHg 64%
    01:00 +9°C° 0 mm 2 mps 575 mmHg 62%
    02:00 +8°C° 0 mm 2 mps 574 mmHg 59%
    03:00 +8°C° 0 mm 2 mps 574 mmHg 56%
    04:00 +8°C° 0 mm 2 mps 574 mmHg 53%
    05:00 +7°C° 0 mm 2 mps 574 mmHg 50%
    06:00 +9°C° 0 mm 3 mps 575 mmHg 44%
    07:00 +11°C° 0 mm 3 mps 577 mmHg 38%
    08:00 +13°C° 0 mm 3 mps 578 mmHg 33%
    09:00 +14°C° 0 mm 4 mps 579 mmHg 31%
    10:00 +17°C° 0 mm 4 mps 579 mmHg 29%
    11:00 +17°C° 0 mm 5 mps 580 mmHg 26%
    12:00 +18°C° 0 mm 4 mps 579 mmHg 27%
    13:00 +18°C° 0 mm 4 mps 579 mmHg 28%
    14:00 +19°C° 0 mm 4 mps 578 mmHg 29%
    15:00 +17°C° 0 mm 3 mps 577 mmHg 36%
    16:00 +14°C° 0 mm 3 mps 576 mmHg 43%
    17:00 +12°C° 0 mm 3 mps 576 mmHg 51%
    18:00 +10°C° 0 mm 3 mps 576 mmHg 58%
    19:00 +9°C° 0 mm 3 mps 576 mmHg 66%
    20:00 +8°C° 0 mm 3 mps 576 mmHg 73%
    21:00 +8°C° 0 mm 3 mps 576 mmHg 74%
    22:00 +7°C° 0 mm 2 mps 575 mmHg 74%
    23:00 +7°C° 0 mm 2 mps 575 mmHg 75%

    27 November, Monday

    Time Temperature Precipitation Wind Pressure Humidity
    00:00 +7°C° 0 mm 2 mps 575 mmHg 75%
    01:00 +6°C° 0 mm 2 mps 574 mmHg 75%
    02:00 +6°C° 0 mm 2 mps 574 mmHg 76%
    03:00 +6°C° 0 mm 2 mps 574 mmHg 77%
    04:00 +6°C° 0 mm 2 mps 574 mmHg 77%
    05:00 +5°C° 0 mm 2 mps 574 mmHg 78%
    06:00 +7°C° 0 mm 2 mps 575 mmHg 72%
    07:00 +9°C° 0 mm 2 mps 576 mmHg 65%
    08:00 +12°C° 0 mm 2 mps 577 mmHg 59%
    09:00 +14°C° 0 mm 2 mps 577 mmHg 52%
    10:00 +16°C° 0 mm 2 mps 578 mmHg 45%
    11:00 +18°C° 0 mm 2 mps 578 mmHg 38%
    12:00 +18°C° 0 mm 2 mps 578 mmHg 37%
    13:00 +19°C° 0 mm 2 mps 577 mmHg 36%
    14:00 +19°C° 0 mm 2 mps 577 mmHg 34%
    15:00 +17°C° 0 mm 2 mps 576 mmHg 42%
    16:00 +16°C° 0 mm 2 mps 575 mmHg 50%
    17:00 +14°C° 0 mm 2 mps 574 mmHg 58%
    18:00 +13°C° 0 mm 2 mps 575 mmHg 64%
    19:00 +12°C° 0 mm 1 mps 575 mmHg 70%
    20:00 +11°C° 0 mm 1 mps 575 mmHg 75%
    21:00 +11°C° 0 mm 1 mps 574 mmHg 77%
    22:00 +10°C° 0 mm 1 mps 574 mmHg 80%
    23:00 +10°C° 0 mm 1 mps 574 mmHg 82%

    28 November, Tuesday

    Time Temperature Precipitation Wind Pressure Humidity
    00:00 +9°C° 0 mm 1 mps 573 mmHg 81%
    01:00 +9°C° 0 mm 1 mps 573 mmHg 81%
    02:00 +9°C° 0 mm 1 mps 572 mmHg 81%
    03:00 +8°C° 0 mm 1 mps 572 mmHg 80%
    04:00 +8°C° 0 mm 1 mps 572 mmHg 78%
    05:00 +8°C° 0 mm 1 mps 572 mmHg 76%
    06:00 +10°C° 0 mm 1 mps 573 mmHg 66%
    07:00 +12°C° 0 mm 1 mps 575 mmHg 56%
    08:00 +14°C° 0 mm 1 mps 576 mmHg 45%
    09:00 +16°C° 0 mm 1 mps 576 mmHg 39%
    10:00 +18°C° 0 mm 2 mps 577 mmHg 32%
    11:00 +19°C° 0 mm 2 mps 577 mmHg 26%
    12:00 +20°C° 0 mm 2 mps 577 mmHg 27%
    13:00 +20°C° 0 mm 2 mps 576 mmHg 27%
    14:00 +21°C° 0 mm 2 mps 576 mmHg 28%
    15:00 +19°C° 0 mm 2 mps 575 mmHg 37%
    16:00 +18°C° 0 mm 1 mps 575 mmHg 46%
    17:00 +15°C° 0 mm 1 mps 574 mmHg 55%
    18:00 +14°C° 0 mm 1 mps 574 mmHg 60%
    19:00 +12°C° 0 mm 0 mps 574 mmHg 65%
    20:00 +11°C° 0 mm 0 mps 574 mmHg 70%
    21:00 +11°C° 0 mm 0 mps 574 mmHg 71%
    22:00 +10°C° 0 mm 0 mps 574 mmHg 71%
    23:00 +11°C° 0 mm 1 mps 574 mmHg 71%

    29 November, Wednesday

    Time Temperature Precipitation Wind Pressure Humidity
    00:00 +11°C° 0 mm 1 mps 574 mmHg 71%
    01:00 +10°C° 0 mm 1 mps 573 mmHg 71%
    02:00 +10°C° 0 mm 1 mps 573 mmHg 71%
    03:00 +10°C° 0 mm 1 mps 573 mmHg 71%
    04:00 +9°C° 0 mm 1 mps 573 mmHg 72%
    05:00 +9°C° 0 mm 1 mps 573 mmHg 73%
    06:00 +10°C° 0 mm 2 mps 575 mmHg 67%
    07:00 +13°C° 0 mm 2 mps 576 mmHg 60%
    08:00 +14°C° 0 mm 2 mps 577 mmHg 54%
    09:00 +16°C° 0 mm 2 mps 578 mmHg 46%
    10:00 +18°C° 0 mm 2 mps 578 mmHg 38%
    11:00 +20°C° 0 mm 2 mps 579 mmHg 30%
    12:00 +20°C° 0 mm 2 mps 579 mmHg 31%
    13:00 +20°C° 0 mm 3 mps 578 mmHg 32%
    14:00 +20°C° 0 mm 3 mps 578 mmHg 34%
    15:00 +18°C° 0 mm 3 mps 577 mmHg 44%
    16:00 +16°C° 0 mm 3 mps 577 mmHg 53%
    17:00 +15°C° 0 mm 2 mps 576 mmHg 63%
    18:00 +14°C° 0 mm 2 mps 576 mmHg 68%
    19:00 +13°C° 0 mm 2 mps 576 mmHg 73%
    20:00 +12°C° 0 mm 2 mps 576 mmHg 78%
    21:00 +10°C° 0 mm 2 mps 576 mmHg 80%
    22:00 +10°C° 0 mm 2 mps 576 mmHg 82%
    23:00 +9°C° 0 mm 2 mps 575 mmHg 84%
    Show more